Home   Weather   Fairfield   Past weeks
Flag for USA

Past Weather in Fairfield, Ohio, USA — Yesterday and Last 2 Weeks

Now
20 °F

Clear.


Feels Like: 10 °F
Forecast: 39 / 20 °F
Wind: 8 mph from Northeast

Location: Wheeling Ohio County Airport

Current Time: Dec 12, 2019 at 3:24:25 am

Latest Report: Dec 12, 2019 at 2:53 am


Visibility: 10 mi

Pressure: 30.63 "Hg

Humidity: 71%

Dew Point: 12 °F

Location of FairfieldLocation

Past Weather in Fairfield — Graph

°F

Fairfield Temperature Yesterday

Maximum temperature yesterday: 29 °F (at 6:53 pm)
Minimum temperature yesterday: 19 °F (at 7:53 am)
Average temperature yesterday: 25 °F

High & Low Weather Summary for the Past Weeks

 TemperatureHumidityPressure
High68 °F (Dec 2, 11:53 am)96% (Dec 1, 8:05 am)30.63 "Hg (Dec 1, 8:05 am)
Low19 °F (Dec 11, 7:53 am)42% (Nov 27, 3:53 pm)29.38 "Hg (Dec 1, 12:53 pm)
Average38 °F73%29.96 "Hg
* Reported Nov 27 1:53 am — Dec 12 1:53 am, Fairfield. Weather by CustomWeather, © 2019

Note: Actual official high and low records may vary slightly from our data, if they occured in-between our weather recording intervals... More about our weather records

Fairfield Weather History for the Previous 24 Hours

Scroll right to see more
 ConditionsComfort  
Time TempWeatherWind HumidityBarometerVisibility
1:53 am
Thu, Dec 12
21 °FClear.6 mph71%30.62 "Hg10 mi
12:53 am22 °FClear.6 mph72%30.63 "Hg10 mi
11:53 pm
Wed, Dec 11
23 °FClear.5 mph68%30.62 "Hg10 mi
10:53 pm25 °FPassing clouds.9 mph66%30.61 "Hg10 mi
10:36 pm25 °FPartly cloudy.12 mph69%30.55 "Hg10 mi
8:53 pm27 °FOvercast.9 mph61%30.56 "Hg10 mi
7:53 pm28 °FOvercast.12 mph64%30.55 "Hg10 mi
6:53 pm29 °FOvercast.14 mph61%30.53 "Hg10 mi
5:53 pm28 °FOvercast.12 mph64%30.52 "Hg10 mi
4:53 pm28 °FOvercast.10 mph61%30.49 "Hg10 mi
3:53 pm28 °FMostly cloudy.16 mph58%30.47 "Hg10 mi
2:53 pm28 °FOvercast.20 mph56%30.44 "Hg10 mi
1:53 pm28 °FMostly cloudy.14 mph51%30.43 "Hg10 mi
12:53 pm26 °FMostly cloudy.16 mph55%30.42 "Hg10 mi
11:53 am26 °FOvercast.13 mph55%30.42 "Hg10 mi
10:53 am25 °FSunny.9 mph58%30.40 "Hg10 mi
9:53 am22 °FSunny.12 mph60%30.42 "Hg10 mi
8:53 am20 °FSunny.13 mph65%30.46 "Hg10 mi
7:53 am19 °FSunny.7 mph62%30.44 "Hg10 mi
6:53 am20 °FClear.10 mph57%30.41 "Hg10 mi
5:53 am20 °FClear.10 mph60%30.38 "Hg10 mi
4:53 am21 °FClear.12 mph57%30.37 "Hg10 mi
3:53 am22 °FClear.12 mph62%30.34 "Hg10 mi
Weather by CustomWeather, © 2019

See weather overview

Advertising